User: anonymous   Login
Location: Copeville
(33.0796°N, 96.4155°W)
Time: 08:38:37
(UTC+00:00)
Language:

H-2A R/B (2) - Orbit

View from above orbital plane
View from above orbital plane
View from above satellite
View from above satellite

Ground track
Ground track

The orbit data is extracted from the following two-line orbital elements,

1 27518U 02042D   22141.08297156  .00000102  00000-0  72289-3 0  9993
2 27518  28.8324  35.1460 7132013 125.1277 323.1470  2.36568124170121
Epoch (UTC): 21 May 2022 01:59:28
Eccentricity: 0.7132013
inclination: 28.8324°
perigee height: 445 km
apogee height: 34382 km
right ascension of ascending node: 35.1460°
argument of perigee: 125.1277°
revolutions per day: 2.36568124
mean anomaly at epoch: 323.1470°
orbit number at epoch: 17012

The dashed part of the orbit path shows where the satellite is in the earth's shadow,  

DLR